Location: Gro�sch�nbrunn
(49.5760°N, 11.8868°E)
Time: 22:36:41
(UTC+00:00)

USA 238 - Pass Details

Date: 18 September 2020
Orbit: 1006 x 1206 km, 63.4° (Epoch: 28 October)

Event Time Altitude Azimuth Distance (km) Brightness Sun altitude
Rises 17:41:14 0° 313° (NW) 3,898 7.7 -4.5°
Reaches altitude 10° 17:44:01 10° 320° (NW) 2,970 6.8 -5.0°
Maximum altitude 17:50:47 45° 32° (NNE) 1,522 4.4 -6.0°
Drops below altitude 10° 17:57:50 10° 104° (ESE) 3,093 5.4 -7.2°
Enters shadow 17:58:18 - 105° (ESE) 3,246 5.5 -7.2°
